Location: Gro�sch�nbrunn
(49.5760°N, 11.8868°E)
Time: 14:04:08
(UTC+00:00)

CZ-2C R/B - Pass Details

Date: 18 September 2020
Orbit: 785 x 870 km, 98.2° (Epoch: 27 October)

Event Time Altitude Azimuth Distance (km) Brightness Sun altitude
Rises 19:15:44 0° 13° (NNE) 3,408 6.0 -19.1°
Reaches altitude 10° 19:18:05 10° 12° (NNE) 2,480 5.3 -19.5°
Maximum altitude 19:23:36 80° 287° (WNW) 876 2.8 -20.3°
Drops below altitude 10° 19:29:11 10° 201° (SSW) 2,503 5.1 -21.0°
Sets 19:31:34 0° 200° (SSW) 3,441 5.8 -21.4°
